Home   Weather   Mount Airy   Past weeks
Flag for USA

Past Weather in Mount Airy, North Carolina, USA — Yesterday and Last 2 Weeks

Now
57 °F

Scattered clouds.


Feels Like: 56 °F
Forecast: 57 / 31 °F
Wind: 6 mph from East

Location: Mount Airy/Surry County Airport

Current Time: Mar 20, 2019 at 7:37:04 pm

Latest Report: Mar 20, 2019 at 7:00 pm


Visibility: 10 mi

Pressure: 30.13 "Hg

Humidity: 23%

Dew Point: 19 °F

Location of Mount AiryLocation

Past Weather in Mount Airy — Graph

°F

Mount Airy Temperature Yesterday

Maximum temperature yesterday: 53 °F (at 4:40 pm)
Minimum temperature yesterday: 27 °F (at 7:40 am)
Average temperature yesterday: 41 °F

High & Low Weather Summary for the Past Weeks

 TemperatureHumidityPressure
High67 °F (Mar 14, 6:05 pm)93% (Mar 8, 1:45 pm)30.47 "Hg (Mar 8, 1:45 pm)
Low25 °F (Mar 6, 7:05 am)13% (Mar 12, 5:05 pm)29.88 "Hg (Mar 15, 5:45 pm)
Average46 °F55%30.22 "Hg
* Reported Mar 5 5:05 pm — Mar 20 6:00 pm, Mount Airy. Weather by CustomWeather, © 2019

Note: Actual official high and low records may vary slightly from our data, if they occured in-between our weather recording intervals... More about our weather records

Advertising

Mount Airy Weather History for the Previous 24 Hours

Scroll right to see more
 ConditionsComfort  
Time TempWeatherWind HumidityBarometerVisibility
6:00 pm
Wed, Mar 20
58 °FScattered clouds.No wind20%30.15 "Hg10 mi
5:40 pm58 °FScattered clouds.No wind19%30.15 "Hg10 mi
5:20 pm58 °FSunny.5 mph18%30.16 "Hg10 mi
5:00 pm58 °FSunny.No wind19%30.16 "Hg10 mi
4:40 pm57 °FSunny.5 mph19%30.17 "Hg10 mi
4:20 pm58 °FSunny.7 mph19%30.17 "Hg10 mi
4:00 pm57 °FSunny.3 mph19%30.17 "Hg10 mi
3:40 pm56 °FSunny.3 mph22%30.18 "Hg10 mi
3:20 pm55 °FSunny.7 mph20%30.19 "Hg10 mi
3:00 pm55 °FSunny.3 mph19%30.20 "Hg10 mi
2:40 pm54 °FSunny.5 mph22%30.22 "Hg10 mi
2:20 pm54 °FSunny.No wind22%30.24 "Hg10 mi
2:00 pm54 °FSunny.8 mph24%30.26 "Hg10 mi
1:40 pm52 °FSunny.5 mph27%30.28 "Hg10 mi
1:20 pm52 °FSunny.3 mph29%30.29 "Hg10 mi
1:00 pm51 °FSunny.3 mph27%30.30 "Hg10 mi
12:40 pm50 °FSunny.No wind30%30.31 "Hg10 mi
12:20 pm50 °FSunny.7 mph29%30.32 "Hg10 mi
12:00 pm48 °FSunny.12 mph31%30.33 "Hg10 mi
11:40 am48 °FSunny.6 mph31%30.34 "Hg10 mi
11:20 am47 °FSunny.8 mph33%30.34 "Hg10 mi
11:00 am46 °FSunny.3 mph36%30.35 "Hg10 mi
10:40 am46 °FSunny.7 mph38%30.35 "Hg10 mi
10:00 am44 °FSunny.5 mph39%30.36 "Hg10 mi
9:40 am43 °FSunny.5 mph41%30.36 "Hg10 mi
9:00 am41 °FSunny.No wind48%30.35 "Hg10 mi
8:40 am40 °FSunny.No wind50%30.35 "Hg10 mi
8:20 am39 °FSunny.No wind54%30.35 "Hg10 mi
8:00 am38 °FSunny.5 mph56%30.34 "Hg10 mi
7:40 am37 °FSunny.No wind57%30.34 "Hg10 mi
7:20 am38 °FClear.3 mph55%30.34 "Hg10 mi
7:00 am38 °FClear.5 mph55%30.33 "Hg10 mi
6:40 am37 °FClear.5 mph56%30.32 "Hg10 mi
6:20 am32 °FClear.No wind75%30.32 "Hg10 mi
6:00 am31 °FClear.No wind78%30.32 "Hg10 mi
5:40 am32 °FClear.No wind72%30.32 "Hg10 mi
5:20 am33 °FClear.No wind67%30.31 "Hg10 mi
5:00 am34 °FClear.3 mph64%30.32 "Hg10 mi
4:40 am32 °FClear.No wind68%30.32 "Hg10 mi
4:20 am32 °FClear.No wind69%30.32 "Hg10 mi
4:00 am32 °FClear.No wind71%30.33 "Hg10 mi
3:40 am32 °FClear.No wind72%30.33 "Hg10 mi
3:20 am32 °FClear.No wind70%30.33 "Hg10 mi
3:00 am32 °FClear.No wind70%30.33 "Hg10 mi
2:40 am33 °FClear.No wind68%30.34 "Hg10 mi
2:20 am33 °FClear.No wind67%30.34 "Hg10 mi
2:00 am33 °FClear.No wind70%30.34 "Hg10 mi
1:40 am34 °FClear.No wind68%30.35 "Hg10 mi
1:20 am34 °FClear.No wind71%30.35 "Hg10 mi
1:00 am35 °FClear.No wind67%30.35 "Hg10 mi
12:40 am36 °FClear.No wind58%30.35 "Hg10 mi
12:20 am37 °FClear.No wind61%30.35 "Hg10 mi
12:00 am37 °FClear.No wind66%30.36 "Hg10 mi
11:40 pm
Tue, Mar 19
38 °FClear.No wind60%30.36 "Hg10 mi
11:20 pm41 °FClear.No wind45%30.35 "Hg10 mi
11:00 pm40 °FClear.No wind46%30.35 "Hg10 mi
10:20 pm43 °FClear.No wind43%30.35 "Hg10 mi
10:00 pm41 °FClear.No wind48%30.36 "Hg10 mi
9:20 pm44 °FClear.No wind46%30.34 "Hg10 mi
8:40 pm43 °FClear.No wind48%30.34 "Hg10 mi
8:20 pm46 °FClear.No wind36%30.33 "Hg10 mi
8:00 pm48 °FClear.No wind30%30.33 "Hg10 mi
7:40 pm51 °FClear.3 mph22%30.32 "Hg10 mi
7:00 pm53 °FSunny.No wind19%30.33 "Hg10 mi
Weather by CustomWeather, © 2019

See weather overview